contact:dominique.lefevre@mio.osupytheas.fr, maurice.libes@osupytheas.fr, didier.mallarino@osupytheas.fr
Project:EMSO http://www.emso-fr.org/EMSO-France
Depth: 2436.0 m
Title:EMSO Ligure Ouest : Data MII capteur AQUADOPP
Date,Latitude,Longitude,X_East,Y_North,Z_Up,Amplitude_X,Amplitude_Y,Amplitude_Z,Batterie,SoundSpeed,Heading,Pitch,Roll,Pressure,TIS,Speed,Direction
, degrees North, degrees East, m.s-1, m.s-1,m.s-1, 1, 1, 1, Volt, m.s-1, degree, degree, degree, dbar, degree_C, m.s-1, degree
2023-10-21T00:04:03,42.805,6.029,0.018,-0.011,-0.038,102.0,103.0,101.0,13.4,1505.2,333.0,-0.8,1.9,2471.665,13.28,0.021,121.4
2023-10-21T00:07:03,42.805,6.029,0.014,-0.015,-0.021,103.0,103.0,103.0,13.4,1505.2,339.3,-0.8,1.8,2471.621,13.29,0.02,137.0
2023-10-21T00:10:03,42.805,6.029,0.003,-0.019,-0.035,104.0,103.0,102.0,13.4,1505.2,359.0,-0.8,1.8,2471.601,13.29,0.019,171.0
2023-10-21T00:13:03,42.805,6.029,0.032,-0.009,-0.025,104.0,103.0,101.0,13.4,1505.2,336.8,-0.8,1.8,2471.629,13.29,0.033,105.7
2023-10-21T00:16:03,42.805,6.029,0.014,-0.006,-0.037,102.0,103.0,103.0,13.3,1505.2,357.9,-0.7,1.8,2471.569,13.29,0.015,113.2
2023-10-21T00:19:03,42.805,6.029,0.031,-0.009,-0.006,104.0,103.0,102.0,13.3,1505.2,333.0,-0.8,1.8,2471.573,13.29,0.032,106.2
2023-10-21T00:22:03,42.805,6.029,0.003,-0.002,-0.031,103.0,103.0,102.0,13.4,1505.2,346.8,-0.8,1.8,2471.56,13.29,0.003,123.7
2023-10-21T00:25:03,42.805,6.029,0.031,-0.036,-0.01,104.0,101.0,103.0,13.4,1505.2,359.0,-0.8,1.8,2471.559,13.29,0.047,139.3
2023-10-21T00:28:03,42.805,6.029,0.003,-0.005,-0.038,102.0,103.0,103.0,13.3,1505.2,347.4,-0.7,1.8,2471.607,13.29,0.005,149.0
2023-10-21T00:31:03,42.805,6.029,0.019,-0.016,-0.039,104.0,103.0,102.0,13.4,1505.2,340.9,-0.8,1.8,2471.566,13.29,0.024,130.1
2023-10-21T00:34:03,42.805,6.029,0.017,-0.023,-0.021,103.0,104.0,101.0,13.4,1505.2,359.0,-0.8,1.8,2471.571,13.29,0.028,143.5
2023-10-21T00:37:03,42.805,6.029,0.032,-0.039,-0.023,103.0,104.0,101.0,13.4,1505.2,335.2,-0.7,1.8,2471.524,13.29,0.05,140.6
2023-10-21T00:40:03,42.805,6.029,0.015,0.007,-0.02,102.0,103.0,101.0,13.4,1505.2,342.4,-0.7,1.8,2471.564,13.29,0.016,65.0
2023-10-21T00:43:03,42.805,6.029,-0.003,-0.007,-0.015,101.0,104.0,100.0,13.4,1505.2,359.0,-0.7,1.8,2471.61,13.29,0.007,203.2
2023-10-21T00:46:03,42.805,6.029,0.029,-0.019,-0.016,105.0,102.0,101.0,13.4,1505.2,331.8,-0.7,1.8,2471.529,13.29,0.034,123.2
2023-10-21T00:49:03,42.805,6.029,0.026,-0.041,-0.03,104.0,102.0,102.0,13.4,1505.2,352.6,-0.8,1.8,2471.55,13.29,0.048,147.6
2023-10-21T00:52:03,42.805,6.029,0.013,-0.004,0.002,104.0,103.0,102.0,13.4,1505.2,333.8,-0.7,1.8,2471.562,13.29,0.013,107.1
2023-10-21T00:55:03,42.805,6.029,0.012,0.002,-0.029,103.0,103.0,102.0,13.3,1505.2,338.7,-0.8,1.8,2471.53,13.29,0.012,80.5
2023-10-21T00:58:03,42.805,6.029,0.023,-0.006,-0.03,103.0,104.0,102.0,13.4,1505.2,352.7,-0.8,1.8,2471.579,13.29,0.023,104.6
2023-10-21T01:04:03,42.805,6.029,0.009,-0.011,-0.025,102.0,104.0,102.0,13.4,1505.2,333.0,-0.7,1.8,2471.561,13.28,0.014,140.7
2023-10-21T01:07:03,42.805,6.029,0.002,0.016,-0.052,105.0,103.0,102.0,13.4,1505.2,333.4,-0.8,1.8,2471.6,13.29,0.016,7.1
2023-10-21T01:10:03,42.805,6.029,0.015,-0.02,-0.054,103.0,103.0,102.0,13.3,1505.2,354.6,-0.8,1.8,2471.565,13.29,0.025,143.1
2023-10-21T01:13:03,42.805,6.029,0.012,-0.016,-0.002,104.0,103.0,101.0,13.3,1505.2,349.6,-0.8,1.8,2471.57,13.29,0.02,143.1
2023-10-21T01:16:03,42.805,6.029,0.012,-0.024,-0.015,103.0,103.0,101.0,13.4,1505.2,355.9,-0.8,1.8,2471.553,13.29,0.026,153.4
2023-10-21T01:19:03,42.805,6.029,0.031,-0.003,-0.028,103.0,102.0,102.0,13.4,1505.2,331.8,-0.8,1.8,2471.547,13.29,0.031,95.5
2023-10-21T01:22:03,42.805,6.029,0.019,-0.018,-0.044,105.0,102.0,102.0,13.4,1505.2,340.7,-0.8,1.9,2471.569,13.29,0.026,133.5
2023-10-21T01:25:03,42.805,6.029,0.017,0.005,0.008,104.0,103.0,102.0,13.4,1505.2,339.6,-0.8,1.8,2471.549,13.29,0.017,73.6
2023-10-21T01:28:03,42.805,6.029,0.036,-0.014,-0.026,106.0,101.0,104.0,13.3,1505.2,353.3,-0.8,1.8,2471.517,13.29,0.038,111.2
2023-10-21T01:31:03,42.805,6.029,0.002,0.005,0.02,105.0,104.0,101.0,13.4,1505.2,341.8,-0.8,1.8,2471.522,13.29,0.005,21.8
2023-10-21T01:34:03,42.805,6.029,0.018,-0.017,0.002,103.0,104.0,101.0,13.4,1505.2,339.3,-0.8,1.8,2471.522,13.29,0.024,133.4
2023-10-21T01:37:03,42.805,6.029,0.02,-0.003,-0.021,102.0,104.0,101.0,13.4,1505.2,349.3,-0.8,1.8,2471.537,13.29,0.02,98.5
2023-10-21T01:40:03,42.805,6.029,0.01,-0.002,-0.037,104.0,102.0,102.0,13.4,1505.2,339.5,-0.8,1.8,2471.478,13.29,0.01,101.3
2023-10-21T01:43:03,42.805,6.029,-0.001,-0.015,-0.053,101.0,105.0,102.0,13.4,1505.2,349.6,-0.8,1.8,2471.566,13.29,0.015,183.8
2023-10-21T01:46:03,42.805,6.029,0.011,0.007,-0.027,103.0,102.0,102.0,13.4,1505.2,336.9,-0.8,1.8,2471.525,13.29,0.013,57.5
2023-10-21T01:49:03,42.805,6.029,0.028,-0.013,-0.028,104.0,104.0,102.0,13.4,1505.2,339.7,-0.8,1.8,2471.528,13.29,0.03,114.9
2023-10-21T01:52:03,42.805,6.029,0.031,-0.013,0.01,103.0,103.0,102.0,13.3,1505.2,355.8,-0.8,1.8,2471.556,13.29,0.033,112.7
2023-10-21T01:55:03,42.805,6.029,0.028,-0.009,-0.056,103.0,103.0,102.0,13.4,1505.2,338.6,-0.7,1.8,2471.551,13.29,0.029,107.8
2023-10-21T01:58:03,42.805,6.029,0.03,-0.001,-0.007,103.0,104.0,102.0,13.4,1505.2,351.2,-0.8,1.8,2471.534,13.29,0.03,91.9
2023-10-21T02:04:03,42.805,6.029,0.009,-0.001,-0.012,103.0,103.0,101.0,13.3,1505.2,359.0,-0.7,1.8,2471.573,13.29,0.009,96.3
2023-10-21T02:07:03,42.805,6.029,0.023,-0.013,-0.016,103.0,103.0,102.0,13.3,1505.2,351.6,-0.8,1.8,2471.562,13.29,0.026,119.5
2023-10-21T02:10:03,42.805,6.029,0.022,-0.009,-0.039,103.0,103.0,101.0,13.4,1505.2,334.9,-0.8,1.8,2471.566,13.29,0.023,112.2
2023-10-21T02:13:03,42.805,6.029,0.032,-0.026,-0.021,103.0,105.0,100.0,13.4,1505.2,343.9,-0.7,1.8,2471.522,13.29,0.041,129.1
2023-10-21T02:16:03,42.805,6.029,0.026,-0.028,-0.027,106.0,104.0,101.0,13.4,1505.2,340.9,-0.8,1.8,2471.54,13.29,0.038,137.1
2023-10-21T02:19:03,42.805,6.029,0.027,-0.007,-0.025,104.0,103.0,101.0,13.4,1505.2,343.6,-0.8,1.8,2471.579,13.29,0.027,104.5
2023-10-21T02:22:03,42.805,6.029,0.014,-0.007,-0.025,106.0,104.0,101.0,13.4,1505.2,357.9,-0.7,1.8,2471.516,13.29,0.015,116.6
2023-10-21T02:25:03,42.805,6.029,0.026,-0.006,-0.059,103.0,103.0,101.0,13.4,1505.2,331.1,-0.8,1.9,2471.532,13.29,0.026,103.0
2023-10-21T02:28:03,42.805,6.029,0.021,0.003,-0.021,103.0,102.0,101.0,13.4,1505.2,356.1,-0.8,1.8,2471.516,13.29,0.021,81.9
2023-10-21T02:31:03,42.805,6.029,0.031,-0.008,0.003,103.0,103.0,101.0,13.4,1505.2,337.2,-0.7,1.8,2471.512,13.29,0.032,104.5
2023-10-21T02:34:03,42.805,6.029,0.006,0.001,0.005,104.0,103.0,101.0,13.4,1505.2,344.4,-0.7,1.8,2471.505,13.29,0.006,80.5
2023-10-21T02:37:03,42.805,6.029,0.0,-0.007,-0.005,103.0,103.0,102.0,13.4,1505.2,341.5,-0.8,1.8,2471.493,13.29,0.007,180.0
2023-10-21T02:40:03,42.805,6.029,0.023,0.014,-0.012,105.0,105.0,102.0,13.4,1505.2,355.5,-0.8,1.8,2471.494,13.29,0.026,58.7
2023-10-21T02:43:03,42.805,6.029,-0.002,-0.006,-0.012,103.0,103.0,101.0,13.3,1505.2,344.4,-0.8,1.8,2471.495,13.29,0.006,198.4
2023-10-21T02:46:03,42.805,6.029,-0.001,-0.011,-0.019,103.0,103.0,102.0,13.4,1505.2,355.3,-0.8,1.8,2471.515,13.29,0.011,185.2
2023-10-21T02:49:03,42.805,6.029,0.007,0.009,-0.037,103.0,103.0,101.0,13.3,1505.2,335.9,-0.7,1.8,2471.498,13.29,0.011,37.9
2023-10-21T02:52:03,42.805,6.029,0.015,0.004,-0.022,104.0,104.0,102.0,13.4,1505.2,337.5,-0.8,1.8,2471.514,13.29,0.015,75.1
2023-10-21T02:55:03,42.805,6.029,0.03,0.002,-0.036,102.0,105.0,102.0,13.4,1505.2,346.4,-0.7,1.8,2471.543,13.29,0.03,86.2
2023-10-21T02:58:03,42.805,6.029,0.005,-0.021,0.012,104.0,104.0,102.0,13.4,1505.2,349.8,-0.8,1.8,2471.53,13.29,0.021,166.6
2023-10-21T03:04:03,42.805,6.029,0.0,-0.015,-0.048,104.0,104.0,102.0,13.3,1505.2,343.3,-0.8,1.8,2471.539,13.29,0.015,180.0
2023-10-21T03:07:03,42.805,6.029,0.01,-0.006,-0.042,103.0,103.0,102.0,13.3,1505.2,351.1,-0.8,1.8,2471.545,13.29,0.011,121.0
2023-10-21T03:10:03,42.805,6.029,0.011,-0.007,-0.012,102.0,103.0,102.0,13.3,1505.2,351.5,-0.7,1.8,2471.517,13.29,0.013,122.5
2023-10-21T03:13:03,42.805,6.029,0.024,-0.003,0.022,105.0,103.0,101.0,13.4,1505.2,331.5,-0.8,1.8,2471.533,13.29,0.024,97.1
2023-10-21T03:16:03,42.805,6.029,0.012,-0.006,-0.034,103.0,105.0,101.0,13.3,1505.2,341.2,-0.8,1.8,2471.498,13.29,0.013,116.6
2023-10-21T03:19:03,42.805,6.029,-0.003,0.0,-0.019,103.0,103.0,102.0,13.4,1505.2,356.0,-0.8,1.9,2471.518,13.29,0.003,270.0
2023-10-21T03:22:03,42.805,6.029,0.028,-0.001,0.0,107.0,103.0,102.0,13.3,1505.2,337.2,-0.8,1.8,2471.468,13.29,0.028,92.0
2023-10-21T03:25:03,42.805,6.029,0.026,-0.018,0.011,105.0,102.0,104.0,13.4,1505.2,343.4,-0.8,1.8,2471.522,13.29,0.031,124.7
2023-10-21T03:28:03,42.805,6.029,0.025,-0.007,0.003,104.0,103.0,101.0,13.3,1505.2,354.4,-0.7,1.8,2471.52,13.29,0.025,105.6
2023-10-21T03:31:03,42.805,6.029,0.007,0.007,-0.049,103.0,104.0,104.0,13.4,1505.2,337.4,-0.8,1.8,2471.514,13.29,0.009,45.0
2023-10-21T03:34:03,42.805,6.029,0.011,0.011,0.0,103.0,103.0,102.0,13.4,1505.2,347.2,-0.8,1.8,2471.488,13.29,0.015,45.0
2023-10-21T03:37:03,42.805,6.029,0.04,-0.011,0.015,103.0,103.0,102.0,13.3,1505.2,339.3,-0.7,1.8,2471.485,13.29,0.041,105.4
2023-10-21T03:40:03,42.805,6.029,-0.002,-0.011,-0.041,104.0,106.0,101.0,13.3,1505.2,345.9,-0.8,1.8,2471.517,13.29,0.011,190.3
2023-10-21T03:43:03,42.805,6.029,0.012,-0.012,-0.038,103.0,104.0,102.0,13.3,1505.2,336.2,-0.8,1.8,2471.517,13.29,0.016,135.0
2023-10-21T03:46:03,42.805,6.029,-0.001,-0.003,-0.031,102.0,104.0,102.0,13.4,1505.2,0.0,-0.7,1.8,2471.493,13.29,0.003,198.4
2023-10-21T03:49:03,42.805,6.029,0.005,-0.006,-0.032,102.0,101.0,102.0,13.4,1505.2,341.5,-0.8,1.8,2471.477,13.29,0.007,140.2
2023-10-21T03:52:03,42.805,6.029,0.019,-0.009,-0.023,104.0,103.0,102.0,13.3,1505.2,353.0,-0.7,1.8,2471.475,13.29,0.021,115.3
2023-10-21T03:55:03,42.805,6.029,0.047,-0.013,-0.021,105.0,102.0,102.0,13.3,1505.2,341.2,-0.8,1.8,2471.486,13.29,0.048,105.5
2023-10-21T03:58:03,42.805,6.029,0.004,0.009,0.011,104.0,104.0,101.0,13.3,1505.2,347.6,-0.8,1.8,2471.495,13.29,0.009,24.0
2023-10-21T04:04:03,42.805,6.029,0.027,-0.008,-0.024,102.0,103.0,102.0,13.3,1505.2,336.5,-0.8,1.8,2471.514,13.29,0.028,106.5
2023-10-21T04:07:03,42.805,6.029,0.018,-0.006,0.0,103.0,103.0,102.0,13.3,1505.2,351.7,-0.8,1.9,2471.514,13.29,0.018,108.4
2023-10-21T04:10:03,42.805,6.029,0.026,-0.017,-0.044,103.0,103.0,101.0,13.4,1505.2,341.8,-0.8,1.8,2471.532,13.29,0.031,123.2
2023-10-21T04:13:03,42.805,6.029,-0.007,0.016,-0.023,103.0,104.0,101.0,13.4,1505.2,341.5,-0.7,1.8,2471.507,13.29,0.017,336.4
2023-10-21T04:16:03,42.805,6.029,0.017,0.007,-0.004,103.0,105.0,101.0,13.4,1505.2,352.5,-0.7,1.8,2471.497,13.29,0.018,67.6
2023-10-21T04:19:03,42.805,6.029,0.004,0.0,-0.005,102.0,104.0,101.0,13.4,1505.2,344.8,-0.8,1.8,2471.523,13.29,0.004,90.0
2023-10-21T04:22:03,42.805,6.029,0.013,0.003,-0.014,105.0,103.0,102.0,13.4,1505.2,335.0,-0.8,1.8,2471.498,13.29,0.013,77.0
2023-10-21T04:25:03,42.805,6.029,0.009,-0.024,-0.036,103.0,102.0,102.0,13.4,1505.2,346.3,-0.8,1.8,2471.476,13.29,0.025,159.4
2023-10-21T04:28:03,42.805,6.029,0.025,-0.003,-0.018,103.0,103.0,102.0,13.3,1505.2,347.4,-0.8,1.8,2471.479,13.29,0.025,96.8
2023-10-21T04:31:03,42.805,6.029,0.005,-0.009,-0.035,103.0,102.0,102.0,13.3,1505.2,349.0,-0.8,1.8,2471.449,13.29,0.01,150.9
2023-10-21T04:34:03,42.805,6.029,0.008,0.004,0.012,106.0,102.0,101.0,13.4,1505.2,341.8,-0.8,1.8,2471.474,13.29,0.008,63.4
2023-10-21T04:37:03,42.805,6.029,0.001,0.011,-0.007,103.0,102.0,102.0,13.4,1505.2,352.9,-0.7,1.8,2471.461,13.29,0.011,5.2
2023-10-21T04:40:03,42.805,6.029,0.014,-0.007,-0.022,104.0,102.0,102.0,13.4,1505.2,333.0,-0.8,1.8,2471.476,13.29,0.015,116.6
2023-10-21T04:43:03,42.805,6.029,0.011,0.0,-0.037,104.0,102.0,102.0,13.3,1505.2,337.5,-0.7,1.8,2471.445,13.29,0.011,90.0
2023-10-21T04:46:03,42.805,6.029,0.005,0.012,-0.004,102.0,102.0,101.0,13.4,1505.2,359.0,-0.7,1.8,2471.477,13.29,0.013,22.6
2023-10-21T04:49:03,42.805,6.029,0.003,0.007,0.006,104.0,101.0,101.0,13.4,1505.2,348.0,-0.7,1.8,2471.47,13.29,0.007,23.2
2023-10-21T04:52:03,42.805,6.029,0.006,0.004,-0.002,102.0,103.0,102.0,13.4,1505.2,340.9,-0.8,1.8,2471.455,13.29,0.007,56.3
2023-10-21T04:55:03,42.805,6.029,0.005,-0.004,-0.025,104.0,102.0,101.0,13.4,1505.2,338.5,-0.8,1.8,2471.444,13.29,0.006,128.7
2023-10-21T04:58:03,42.805,6.029,0.012,-0.003,-0.022,103.0,102.0,103.0,13.4,1505.2,353.0,-0.8,1.8,2471.445,13.29,0.012,104.0
2023-10-21T05:04:03,42.805,6.029,0.017,-0.003,-0.005,103.0,104.0,102.0,13.4,1505.2,331.8,-0.7,1.8,2471.484,13.29,0.017,100.0
2023-10-21T05:07:03,42.805,6.029,0.008,0.005,-0.028,104.0,104.0,103.0,13.4,1505.2,344.4,-0.7,1.8,2471.51,13.29,0.009,58.0
2023-10-21T05:10:03,42.805,6.029,0.026,0.0,-0.052,103.0,102.0,102.0,13.4,1505.2,338.7,-0.8,1.8,2471.486,13.29,0.026,90.0
2023-10-21T05:13:03,42.805,6.029,0.027,-0.006,-0.031,103.0,103.0,101.0,13.3,1505.2,353.0,-0.7,1.8,2471.538,13.29,0.027,102.5
2023-10-21T05:16:03,42.805,6.029,0.014,0.001,-0.037,103.0,103.0,101.0,13.4,1505.2,357.3,-0.7,1.8,2471.5,13.29,0.014,85.9
2023-10-21T05:19:03,42.805,6.029,0.023,0.012,0.01,104.0,103.0,102.0,13.4,1505.2,356.3,-0.8,1.8,2471.488,13.29,0.025,62.4
2023-10-21T05:22:03,42.805,6.029,0.009,-0.005,-0.013,104.0,101.0,103.0,13.4,1505.2,339.1,-0.8,1.8,2471.47,13.29,0.01,119.1
2023-10-21T05:25:03,42.805,6.029,0.012,-0.003,0.004,103.0,104.0,101.0,13.4,1505.2,348.5,-0.8,1.8,2471.51,13.29,0.012,104.0
2023-10-21T05:28:03,42.805,6.029,0.007,-0.023,-0.011,103.0,103.0,101.0,13.4,1505.2,352.1,-0.8,1.8,2471.489,13.29,0.024,163.1
2023-10-21T05:31:03,42.805,6.029,0.043,-0.014,-0.031,104.0,103.0,101.0,13.3,1505.2,349.0,-0.8,1.8,2471.477,13.29,0.045,108.0
2023-10-21T05:34:03,42.805,6.029,0.022,0.0,-0.016,103.0,103.0,101.0,13.3,1505.2,335.1,-0.8,1.8,2471.503,13.29,0.022,90.0
2023-10-21T05:37:03,42.805,6.029,0.028,-0.015,-0.015,103.0,103.0,102.0,13.4,1505.2,347.2,-0.8,1.8,2471.474,13.29,0.031,118.2
2023-10-21T05:40:03,42.805,6.029,0.017,-0.011,-0.04,102.0,104.0,102.0,13.4,1505.2,352.4,-0.8,1.8,2471.491,13.29,0.02,122.9
2023-10-21T05:43:03,42.805,6.029,0.024,-0.003,-0.02,104.0,102.0,102.0,13.4,1505.2,352.1,-0.7,1.8,2471.499,13.29,0.024,97.1
2023-10-21T05:46:03,42.805,6.029,0.027,0.001,-0.002,103.0,103.0,102.0,13.4,1505.2,338.9,-0.8,1.8,2471.496,13.29,0.027,87.9
2023-10-21T05:49:03,42.805,6.029,0.022,-0.012,-0.032,104.0,104.0,102.0,13.4,1505.2,346.1,-0.8,1.8,2471.48,13.29,0.025,118.6
2023-10-21T05:52:03,42.805,6.029,-0.005,0.003,-0.027,103.0,103.0,101.0,13.4,1505.2,341.5,-0.7,1.8,2471.489,13.29,0.005,301.0
2023-10-21T05:55:03,42.805,6.029,0.023,0.014,-0.011,104.0,104.0,102.0,13.4,1505.2,350.9,-0.8,1.8,2471.481,13.29,0.026,58.7
2023-10-21T05:58:03,42.805,6.029,0.04,0.016,-0.004,103.0,103.0,102.0,13.4,1505.2,331.8,-0.7,1.8,2471.528,13.29,0.043,68.2
2023-10-21T06:04:03,42.805,6.029,0.017,0.003,-0.036,102.0,102.0,102.0,13.3,1505.2,346.3,-0.8,1.8,2471.522,13.29,0.017,80.0
2023-10-21T06:07:03,42.805,6.029,0.05,-0.008,0.0,104.0,103.0,102.0,13.4,1505.2,335.6,-0.8,1.8,2471.501,13.29,0.05,99.1
2023-10-21T06:10:03,42.805,6.029,0.012,0.006,-0.002,104.0,102.0,102.0,13.4,1505.2,340.7,-0.8,1.8,2471.508,13.29,0.013,63.4
2023-10-21T06:13:03,42.805,6.029,0.005,0.008,-0.039,103.0,103.0,102.0,13.3,1505.2,357.0,-0.7,1.8,2471.513,13.29,0.009,32.0
2023-10-21T06:16:03,42.805,6.029,0.017,0.006,-0.025,103.0,104.0,102.0,13.4,1505.2,338.6,-0.8,1.8,2471.519,13.29,0.018,70.6
2023-10-21T06:19:03,42.805,6.029,0.007,0.005,-0.008,103.0,101.0,103.0,13.4,1505.2,349.3,-0.7,1.8,2471.501,13.29,0.008,54.5
2023-10-21T06:22:03,42.805,6.029,0.014,-0.005,-0.02,104.0,102.0,102.0,13.4,1505.2,359.0,-0.8,1.8,2471.483,13.29,0.014,109.6
2023-10-21T06:25:03,42.805,6.029,0.027,0.011,0.008,103.0,103.0,102.0,13.4,1505.2,337.5,-0.7,1.8,2471.478,13.29,0.029,67.8
2023-10-21T06:28:03,42.805,6.029,0.031,-0.006,-0.006,103.0,103.0,102.0,13.4,1505.2,332.2,-0.7,1.8,2471.495,13.29,0.031,101.0
2023-10-21T06:31:03,42.805,6.029,0.043,0.022,-0.004,105.0,102.0,102.0,13.4,1505.2,329.4,-0.8,1.8,2471.481,13.29,0.048,62.9
2023-10-21T06:34:03,42.805,6.029,0.02,-0.017,-0.041,103.0,104.0,102.0,13.4,1505.2,351.5,-0.8,1.9,2471.456,13.29,0.026,130.4
2023-10-21T06:37:03,42.805,6.029,0.018,0.021,-0.01,104.0,103.0,101.0,13.3,1505.2,344.6,-0.7,1.8,2471.501,13.29,0.027,40.6
2023-10-21T06:40:03,42.805,6.029,0.001,0.002,-0.008,102.0,103.0,102.0,13.4,1505.2,353.2,-0.8,1.8,2471.525,13.29,0.002,26.6
2023-10-21T06:43:03,42.805,6.029,0.019,0.003,-0.016,103.0,104.0,101.0,13.4,1505.2,346.4,-0.7,1.8,2471.502,13.29,0.019,81.0
2023-10-21T06:46:03,42.805,6.029,0.017,-0.008,-0.031,103.0,105.0,103.0,13.4,1505.2,335.2,-0.7,1.8,2471.511,13.29,0.018,115.2
2023-10-21T06:49:03,42.805,6.029,0.015,0.002,-0.012,104.0,104.0,101.0,13.4,1505.2,347.3,-0.8,1.8,2471.526,13.29,0.015,82.4
2023-10-21T06:52:03,42.805,6.029,-0.005,0.007,-0.023,103.0,103.0,101.0,13.3,1505.2,330.3,-0.8,1.8,2471.493,13.29,0.008,324.5
2023-10-21T06:55:03,42.805,6.029,0.01,0.01,0.028,103.0,104.0,101.0,13.4,1505.2,339.5,-0.7,1.8,2471.513,13.29,0.014,45.0
2023-10-21T06:58:03,42.805,6.029,0.018,0.003,0.004,103.0,104.0,102.0,13.4,1505.2,349.6,-0.8,1.8,2471.522,13.29,0.018,80.5
2023-10-21T07:04:03,42.805,6.029,0.03,0.0,-0.019,103.0,103.0,101.0,13.4,1505.2,333.0,-0.8,1.8,2471.56,13.28,0.03,90.0
2023-10-21T07:07:03,42.805,6.029,0.021,0.0,-0.02,103.0,103.0,102.0,13.3,1505.2,355.2,-0.7,1.8,2471.592,13.29,0.021,90.0
2023-10-21T07:10:03,42.805,6.029,0.019,0.01,0.008,103.0,104.0,102.0,13.4,1505.2,332.3,-0.8,1.8,2471.557,13.29,0.021,62.2
2023-10-21T07:13:03,42.805,6.029,0.023,-0.008,-0.03,102.0,103.0,102.0,13.4,1505.2,348.8,-0.7,1.8,2471.594,13.29,0.024,109.2
2023-10-21T07:16:03,42.805,6.029,0.019,0.013,0.002,105.0,103.0,102.0,13.3,1505.2,341.8,-0.7,1.8,2471.544,13.29,0.023,55.6
2023-10-21T07:19:03,42.805,6.029,0.029,0.006,0.017,104.0,103.0,101.0,13.3,1505.2,340.5,-0.8,1.8,2471.513,13.29,0.029,78.3
2023-10-21T07:22:03,42.805,6.029,0.027,-0.005,-0.016,103.0,102.0,104.0,13.3,1505.2,350.3,-0.7,1.8,2471.545,13.29,0.027,100.5
2023-10-21T07:25:03,42.805,6.029,0.04,-0.016,-0.008,103.0,104.0,102.0,13.4,1505.2,349.8,-0.8,1.8,2471.547,13.29,0.043,111.8
2023-10-21T07:28:03,42.805,6.029,0.042,0.005,0.011,103.0,103.0,102.0,13.4,1505.2,343.5,-0.8,1.8,2471.502,13.29,0.042,83.2
2023-10-21T07:31:03,42.805,6.029,0.015,0.003,-0.008,103.0,104.0,102.0,13.4,1505.2,353.7,-0.8,1.8,2471.56,13.29,0.015,78.7
2023-10-21T07:34:03,42.805,6.029,0.024,0.018,-0.013,103.0,103.0,101.0,13.3,1505.2,351.9,-0.8,1.8,2471.554,13.29,0.03,53.1
2023-10-21T07:37:03,42.805,6.029,0.007,-0.011,-0.029,103.0,106.0,102.0,13.4,1505.2,355.2,-0.8,1.8,2471.502,13.29,0.013,147.5
2023-10-21T07:40:03,42.805,6.029,0.01,0.008,-0.008,103.0,102.0,102.0,13.4,1505.2,338.5,-0.8,1.8,2471.548,13.29,0.012,51.3
2023-10-21T07:43:03,42.805,6.029,0.018,0.012,-0.031,104.0,103.0,102.0,13.4,1505.2,336.9,-0.8,1.8,2471.562,13.29,0.021,56.3
2023-10-21T07:46:03,42.805,6.029,0.027,-0.015,-0.031,104.0,104.0,102.0,13.4,1505.2,357.0,-0.7,1.8,2471.536,13.29,0.03,119.1
2023-10-21T07:49:03,42.805,6.029,0.024,-0.001,0.004,104.0,103.0,103.0,13.3,1505.2,338.0,-0.8,1.8,2471.539,13.29,0.024,92.4
2023-10-21T07:52:03,42.805,6.029,0.024,0.001,-0.021,104.0,104.0,101.0,13.3,1505.2,332.6,-0.7,1.8,2471.508,13.29,0.024,87.6
2023-10-21T07:55:03,42.805,6.029,0.037,-0.018,-0.017,104.0,103.0,103.0,13.4,1505.2,336.5,-0.8,1.8,2471.535,13.29,0.041,115.9
2023-10-21T07:58:03,42.805,6.029,0.031,0.007,-0.014,103.0,105.0,102.0,13.4,1505.2,348.4,-0.8,1.8,2471.571,13.29,0.031,77.3
2023-10-21T08:04:03,42.805,6.029,0.052,0.019,0.0,103.0,103.0,102.0,13.4,1505.2,332.5,-0.8,1.8,2471.61,13.28,0.055,69.9
2023-10-21T08:07:03,42.805,6.029,0.023,0.002,-0.025,104.0,103.0,103.0,13.3,1505.2,349.7,-0.8,1.8,2471.624,13.29,0.023,85.0
2023-10-21T08:10:03,42.805,6.029,0.019,0.002,0.006,104.0,103.0,102.0,13.3,1505.2,334.1,-0.8,1.8,2471.606,13.29,0.019,84.0
2023-10-21T08:13:03,42.805,6.029,0.028,-0.003,-0.009,103.0,105.0,101.0,13.4,1505.2,338.3,-0.8,1.8,2471.573,13.29,0.028,96.1
2023-10-21T08:16:03,42.805,6.029,0.027,-0.007,0.013,103.0,104.0,102.0,13.4,1505.2,341.0,-0.8,1.8,2471.585,13.29,0.027,104.5
2023-10-21T08:19:03,42.805,6.029,0.009,-0.01,-0.004,104.0,103.0,103.0,13.4,1505.2,357.0,-0.8,1.8,2471.601,13.29,0.013,138.0
2023-10-21T08:22:03,42.805,6.029,0.038,-0.004,-0.013,103.0,103.0,102.0,13.3,1505.2,338.7,-0.8,1.8,2471.568,13.29,0.038,96.0
2023-10-21T08:25:03,42.805,6.029,0.029,0.011,-0.007,104.0,103.0,101.0,13.4,1505.2,340.0,-0.8,1.8,2471.577,13.29,0.031,69.2
2023-10-21T08:28:03,42.805,6.029,0.028,0.004,-0.019,104.0,103.0,102.0,13.4,1505.2,338.2,-0.8,1.8,2471.571,13.29,0.028,81.9
2023-10-21T08:31:04,42.805,6.029,0.047,-0.009,-0.018,103.0,104.0,102.0,13.4,1505.2,340.6,-0.8,1.8,2471.602,13.29,0.047,100.8
2023-10-21T08:34:03,42.805,6.029,0.025,0.006,-0.014,103.0,105.0,102.0,13.4,1505.2,338.7,-0.8,1.8,2471.611,13.29,0.025,76.5
2023-10-21T08:37:03,42.805,6.029,0.028,-0.002,-0.043,104.0,103.0,101.0,13.4,1505.2,339.5,-0.8,1.8,2471.594,13.29,0.028,94.1
2023-10-21T08:40:03,42.805,6.029,0.031,-0.013,0.002,103.0,103.0,102.0,13.3,1505.2,346.8,-0.8,1.8,2471.577,13.29,0.033,112.7
2023-10-21T08:43:03,42.805,6.029,0.025,-0.01,0.0,103.0,104.0,102.0,13.4,1505.2,341.2,-0.8,1.8,2471.586,13.29,0.026,111.8
2023-10-21T08:46:03,42.805,6.029,0.022,-0.002,0.0,103.0,103.0,102.0,13.4,1505.2,349.5,-0.8,1.8,2471.612,13.29,0.022,95.2
2023-10-21T08:49:03,42.805,6.029,0.023,-0.006,-0.036,104.0,103.0,101.0,13.4,1505.2,348.6,-0.8,1.8,2471.604,13.29,0.023,104.6
2023-10-21T08:52:03,42.805,6.029,0.022,0.006,-0.039,103.0,104.0,102.0,13.4,1505.2,343.3,-0.8,1.8,2471.574,13.29,0.022,74.7
2023-10-21T08:55:03,42.805,6.029,0.026,-0.014,-0.02,104.0,103.0,103.0,13.3,1505.2,347.9,-0.8,1.8,2471.598,13.29,0.029,118.3
2023-10-21T08:58:03,42.805,6.029,0.043,-0.022,-0.013,103.0,104.0,102.0,13.4,1505.2,347.7,-0.8,1.8,2471.614,13.29,0.048,117.1
2023-10-21T09:04:03,42.805,6.029,0.012,0.0,-0.024,105.0,102.0,102.0,13.3,1505.2,357.9,-0.8,1.8,2471.635,13.28,0.012,90.0
2023-10-21T09:07:03,42.805,6.029,0.023,0.0,-0.026,104.0,103.0,102.0,13.3,1505.2,351.0,-0.8,1.8,2471.635,13.29,0.023,90.0
2023-10-21T09:10:03,42.805,6.029,0.036,-0.015,-0.026,103.0,104.0,102.0,13.4,1505.2,344.9,-0.8,1.8,2471.673,13.29,0.039,112.6
2023-10-21T09:13:03,42.805,6.029,0.03,-0.016,-0.01,103.0,103.0,103.0,13.3,1505.2,340.9,-0.8,1.8,2471.652,13.29,0.034,118.1
2023-10-21T09:16:03,42.805,6.029,0.039,-0.006,-0.027,102.0,104.0,102.0,13.4,1505.2,330.3,-0.8,1.8,2471.641,13.29,0.039,98.7
2023-10-21T09:19:03,42.805,6.029,0.021,-0.038,-0.023,104.0,103.0,103.0,13.4,1505.2,350.7,-0.7,1.8,2471.589,13.29,0.043,151.1
2023-10-21T09:22:03,42.805,6.029,0.024,-0.003,-0.053,104.0,103.0,102.0,13.4,1505.2,341.0,-0.8,1.8,2471.646,13.29,0.024,97.1
2023-10-21T09:25:03,42.805,6.029,0.03,-0.002,-0.001,103.0,103.0,102.0,13.4,1505.2,345.7,-0.7,1.8,2471.64,13.29,0.03,93.8
2023-10-21T09:28:03,42.805,6.029,0.026,-0.014,0.005,103.0,104.0,102.0,13.4,1505.2,355.5,-0.8,1.8,2471.602,13.29,0.029,118.3
2023-10-21T09:31:03,42.805,6.029,0.047,0.004,0.037,104.0,103.0,102.0,13.4,1505.2,328.5,-0.8,1.8,2471.573,13.29,0.047,85.1
2023-10-21T09:34:03,42.805,6.029,0.0,-0.008,-0.041,104.0,103.0,102.0,13.3,1505.2,356.9,-0.7,1.8,2471.632,13.29,0.008,180.0
2023-10-21T09:37:03,42.805,6.029,0.023,0.001,-0.026,104.0,103.0,102.0,13.4,1505.2,333.4,-0.8,1.9,2471.642,13.29,0.023,87.5
2023-10-21T09:40:03,42.805,6.029,0.017,-0.012,-0.061,103.0,103.0,102.0,13.4,1505.2,332.6,-0.8,1.8,2471.625,13.29,0.02,125.2
2023-10-21T09:43:03,42.805,6.029,0.034,0.005,-0.02,104.0,104.0,102.0,13.4,1505.2,332.6,-0.8,1.8,2471.59,13.29,0.034,81.6
2023-10-21T09:46:03,42.805,6.029,0.016,0.008,-0.027,104.0,104.0,101.0,13.3,1505.2,337.1,-0.8,1.8,2471.639,13.29,0.017,63.4
2023-10-21T09:49:03,42.805,6.029,0.022,-0.017,-0.034,104.0,103.0,102.0,13.3,1505.2,350.2,-0.7,1.8,2471.671,13.29,0.027,127.7
2023-10-21T09:52:03,42.805,6.029,0.035,-0.026,0.011,104.0,103.0,102.0,13.4,1505.2,355.9,-0.7,1.8,2471.636,13.29,0.043,126.6
2023-10-21T09:55:03,42.805,6.029,0.035,-0.022,-0.016,104.0,102.0,102.0,13.4,1505.2,349.6,-0.8,1.8,2471.654,13.29,0.041,122.2
2023-10-21T09:58:03,42.805,6.029,0.027,-0.002,-0.018,104.0,103.0,101.0,13.4,1505.2,337.1,-0.8,1.8,2471.585,13.29,0.027,94.2